Regional Weather Roundup
Issued by NWS

Home | Current Version | Previous Version | Graphics & Text | Print | Product List | Glossary Off
Versions: 1 2 3 4 5 6 7 8 9 10 11 12 13 14 15 16 17 18 19 20 21 22 23 24 25 26 27 28 29 30 31 32 33 34 35 36 37 38 39 40 41 42 43 44 45 46 47 48 49 50

000
ASUS43 KLSX 240807
RWRMO

WEATHER SUMMARY FOR MISSOURI
NATIONAL WEATHER SERVICE SPRINGFIELD MO
300 AM CDT FRI OCT 24 2014

NOTE: "FAIR" INDICATES FEW OR NO CLOUDS BELOW 12,000 FEET WITH NO
       SIGNIFICANT WEATHER AND/OR OBSTRUCTIONS TO VISIBILITY.
       CURRENT SKY AND/OR WEATHER CONDITIONS ARE NOT AVAILABLE FOR
       CHILLICOTHE AND FARMINGTON.

MOZ001>031-035>038-043-044-053-054-240900-
...NORTHERN AND WESTERN MISSOURI...

CITY           SKY/WX    TMP DP  RH WIND       PRES   REMARKS
KANSAS CTY INT MOCLDY    55  55 100 S9        30.07S FOG
KANSAS C DTWN  MOCLDY    56  54  93 S6        30.07F FOG
LEE`S SUMMIT   CLOUDY    57  56  96 SW13      30.09S FOG
ST JOSEPH      PTCLDY    53  53 100 SE6       30.06S FOG
CHILLICOTHE      N/A     56  55  97 S5        30.09R
KIRKSVILLE     FOG       56  56 100 W9        30.07S VSB 1/4

$$
MOZ066>068-077>081-088>096-101>105-240900-
...SOUTHWEST MISSOURI...

CITY           SKY/WX    TMP DP  RH WIND       PRES   REMARKS
SPRINGFIELD    CLEAR     51  50  96 S6        30.11S FOG
JOPLIN         CLEAR     51  50  96 S6        30.13R

$$
MOZ032>034-039>042-045>050-055>058-069>072-240900-
...CENTRAL MISSOURI...

CITY           SKY/WX    TMP DP  RH WIND       PRES   REMARKS
COLUMBIA       FOG       51  50  96 SW6       30.09S VSB 1/4
JEFFERSON CITY FOG       48  47  96 CALM      30.09F VSB 1/2
ROLLA          MOCLDY    51  48  89 SW8       30.09S
SEDALIA        MOCLDY    60  57  89 SW6       30.10F
WHITEMAN AFB   CLOUDY    59  56  92 SW8       30.09S
OSAGE BEACH    CLOUDY    59  54  82 SW3       30.10F

$$
MOZ051-052-059>065-240900-
...EAST CENTRAL MISSOURI...

CITY           SKY/WX    TMP DP  RH WIND       PRES   REMARKS
ST LOUIS INTL  PTCLDY    54  46  74 CALM      30.09R
SPIRIT OF STL  PTCLDY    51  47  86 CALM      30.08S
ST CHARLES     CLEAR     50  47  89 CALM      30.08S

$$
MOZ072>076-082>087-097>100-106>115-240900-
...SOUTH CENTRAL AND SOUTHEAST MISSOURI...

CITY           SKY/WX    TMP DP  RH WIND       PRES   REMARKS
CAPE GIRARDEAU CLOUDY    48  46  93 CALM      30.13S
FARMINGTON     CLOUDY    48  46  93 CALM      30.13R
POPLAR BLUFF   PTCLDY    45  42  89 CALM      30.13S FOG
WEST PLAINS    CLEAR     48  45  89 CALM      30.13S

$$



USA.gov is the U.S. government's official web portal to all federal, state and local government web resources and services.